Location: Unspecified
(35.7250°N, 0.0000°E)
Time: 12:15:54
(UTC+00:00)

Explorer 7 - Pass Details

Date: 17 August 2020
Orbit: 485 x 679 km, 50.3° (Epoch: 21 September)

Event Time Altitude Azimuth Distance (km) Brightness Sun altitude
Rises 20:55:36 0° 318° (NW) 2,631 11.7 -24.0°
Reaches altitude 10° 20:59:07 10° 350° (N) 1,707 9.9 -24.6°
Maximum altitude 21:00:40 12° 14° (NNE) 1,570 9.4 -24.8°
Enters shadow 21:01:32 11° 28° (NNE) 1,605 9.3 -24.9°
